Flag for Canada Weather past 2 weeks in Rainy River, Ontario, Canada

Now
N/A

Clear.


Feels Like: N/A
Forecast: -15 / -4 °F
Wind: 7 mph from North

Location: Baudette International Airport

Current Time: Jan 31, 2015 at 10:31:29 PM

Latest Report: Jan 31, 2015 at 9:53 PM


Visibility: 10 mi

Pressure: 30.56 "Hg

Humidity: N/A

Dew point: -17 °F

Location of Rainy RiverLocation

Historic Weather in Rainy River — Graph

°F

Rainy River temperature yesterday

Maximum temperature yesterday: 18 °F (at 11:53 PM)
Minimum temperature yesterday: -5 °F (at 12:53 AM)
Average temperature yesterday: 7 °F

Past Weeks' High & Low Weather Summary

 TemperatureHumidityPressure
High39 °F (Jan 23, 12:53 PM)96% (Jan 21, 2:53 AM)30.60 "Hg (Jan 21, 2:53 AM)
Low-9 °F (Jan 31, 8:53 PM)53% (Jan 24, 3:53 PM)29.32 "Hg (Jan 17, 10:03 AM)
Average20 °F80%29.98 "Hg
* Reported Jan 16 8:53 PM — Jan 31 8:53 PM, Rainy River, Weather by CustomWeather, © 2014

Note: Actual official high and low records may vary slightly from our data, if they occured in-between our weather recording intervals... More about our weather records

Advertising

Rainy River weather history for previous 24 hours

 ConditionsComfort  
Time TempWeatherWind HumidityBarometerVisibility
8:53 PM
Jan 31
-9 °FClear.7 mph70%30.55 "Hg10 mi
7:53 PM-7 °FClear.9 mph68%30.55 "Hg10 mi
6:53 PM-6 °FClear.8 mph67%30.54 "Hg10 mi
5:53 PM-4 °FClear.8 mph65%30.52 "Hg10 mi
4:53 PM-2 °FSunny.10 mph62%30.50 "Hg10 mi
3:53 PM0 °FSunny.14 mph59%30.47 "Hg10 mi
2:53 PM0 °FSunny.13 mphN/A30.47 "Hg10 mi
1:53 PM1 °FSunny.14 mph62%30.47 "Hg10 mi
12:53 PM0 °FSunny.13 mph68%30.47 "Hg10 mi
11:53 AM-1 °FSunny.14 mph68%30.47 "Hg10 mi
10:53 AM-1 °FPassing clouds.15 mph71%30.47 "Hg10 mi
10:03 AM-2 °FPartly sunny.17 mph75%30.37 "Hg9 mi
8:53 AM-2 °FOvercast.12 mph78%30.42 "Hg10 mi
7:53 AM-1 °FPassing clouds.13 mph75%30.39 "Hg10 mi
6:53 AM0 °FClear.14 mph75%30.36 "Hg10 mi
5:53 AM2 °FClear.13 mph76%30.33 "Hg10 mi
4:53 AM4 °FOvercast.15 mph80%30.32 "Hg10 mi
3:53 AM8 °FPassing clouds.16 mph76%30.27 "Hg10 mi
3:01 AM13 °FMostly cloudy.15 mph77%30.17 "Hg10 mi
2:53 AM13 °FOvercast.15 mph77%30.24 "Hg10 mi
1:53 AM14 °FMostly cloudy.15 mph80%30.22 "Hg10 mi
12:53 AM15 °FMostly cloudy.17 mph83%30.22 "Hg9 mi
11:53 PM
Jan 30
18 °FLow clouds.14 mph84%30.20 "Hg10 mi
10:53 PM17 °FOvercast.No wind76%30.19 "Hg10 mi
Weather by CustomWeather, © 2014

See weather overviewHow to use our weather pages